199  
ASUS43 KGLD 230308  
RWRGLD  
 
GOODLAND FORECAST AREA HOURLY WEATHER ROUNDUP  
NATIONAL WEATHER SERVICE GOODLAND KS  
900 PM MDT FRI SEP 22 2017  
   
..OFFICIAL OBSERVATIONS
 
 
 
CITY SKY/WX TMP DP RH WIND PRES REMARKS
 
GOODLAND KS PTCLDY 79 55 43 S24G32 29.80R  
HILL CITY KS CLEAR 84 60 44 S17G25 29.83R  
IMPERIAL NEB CLOUDY 82 52 35 S16G26 29.76R  
MCCOOK NEB PTCLDY 85 58 39 S22G32 29.76R  
AKRON CO CLOUDY 66 43 43 NE13 29.83R  
BURLINGTON CO CLEAR 79 57 46 S24G33 29.82R  
LIMON CO N/A N/A N/A N/A MISG 29.86R  

 
   
..UNOFFICIAL OBSERVATIONS
 
 
 
CITY SKY/WX TMP DP RH WIND PRES REMARKS
 
LENORA KS N/A 82 32 16 MISG N/A  
NORTON KS CLEAR 81 50 34 SE15G21 29.80S  
SHARON SPRINGS N/A 79 59 50 S20G31 N/A  
KIT CARSON CO N/A 77 59 53 MISG N/A  
YUMA CO FAIR 66 32 28 N10 29.79R  

 
 
 
CLICK HERE TO GO TO PREVIOUS BULLETINS.

The Nexlab KS Page
The Nexlab CO Page
The Nexlab NE Page Main Text Page